STARLINK-33655 (63424 NORAD) Tracking and Keplerian Element Data

This shows tracking and keplerian element data for the satellite.

Feedback or suggestion? Click here.




ElementValue
Catalog63424
NameSTARLINK-33655
Epoch Orbit4062
Epoch Day353.8415061
Epoch Year2025
RAAN198.3451
Inclination42.9984
Eccentricity0.0001394
Argument of Perigee270.9424
Mean Anonmoly89.1268
Mean Motion15.27596122
Decay Rate0.00017688
L11 63424U 25065AB 25353.84150610 .00017688 00000+0 65044-3 0 9991
L22 63424 42.9984 198.3451 0001394 270.9424 89.1268 15.27596122 40629



Live tracking and technical data element details for STARLINK-33655 (NORAD 63424). STARLINK-33655 can be tracked NOW for your location showing map with azimuth and elevation plus other details from your city location.







IsCatalogInMostPopularTable: catalog: 63424, numindb: 2
Update: records affected: 1



GetName: 63424 STARLINK-33655

Hit Count: updated at: Sun, 08 Feb 2026 17:06:40 GMT